N979AE MTPP-SYCJ

Flight info

Callsign N979AE
Flight time N/A
Altitude 45000
Route KENOK1S KENOK DCT RAGUS DCT KARUM DCT GADIR DCT VODIN DCT MASPA DCT ILVAS DCT MITAK DCT KORTO DCT BITAX DCT KALUP DCT EC120
Aircraft C750/M-SBDE3FGHRWXY/S

Departure

Time 2026-04-16 03:44
Airport Toussaint Louverture International Airport (MTPP)

Arrival

Time N/A
Airport Cheddi Jagan International Airport (SYCJ)
Time Latitude Longitude Altitude Speed Heading
2026-04-16 03:24 18.57763 -72.28443 98 ft 0 kts 268°
2026-04-16 03:39 18.57763 -72.28445 95 ft 2 kts 268°
2026-04-16 03:39 18.57776 -72.28478 90 ft 8 kts 317°
2026-04-16 03:39 18.57843 -72.28490 92 ft 11 kts 359°
2026-04-16 03:39 18.57911 -72.28492 92 ft 9 kts 356°
2026-04-16 03:40 18.57966 -72.28495 92 ft 7 kts 357°
2026-04-16 03:40 18.58011 -72.28497 95 ft 7 kts 356°
2026-04-16 03:40 18.58041 -72.28544 95 ft 10 kts 269°
2026-04-16 03:40 18.58035 -72.28637 93 ft 15 kts 266°
2026-04-16 03:41 18.58028 -72.28759 91 ft 19 kts 266°
2026-04-16 03:41 18.58020 -72.28906 89 ft 22 kts 266°
2026-04-16 03:41 18.58011 -72.29077 84 ft 25 kts 267°
2026-04-16 03:41 18.58003 -72.29276 81 ft 29 kts 268°
2026-04-16 03:42 18.57992 -72.29493 79 ft 31 kts 266°
2026-04-16 03:42 18.57981 -72.29721 76 ft 31 kts 267°
2026-04-16 03:42 18.57971 -72.29941 75 ft 29 kts 267°
2026-04-16 03:42 18.57959 -72.30154 71 ft 29 kts 266°
2026-04-16 03:43 18.57948 -72.30361 69 ft 28 kts 267°
2026-04-16 03:43 18.57938 -72.30557 64 ft 24 kts 267°
2026-04-16 03:43 18.57897 -72.30668 58 ft 11 kts 267°
2026-04-16 03:43 18.57933 -72.30667 62 ft 6 kts 78°
2026-04-16 03:44 18.57943 -72.30492 61 ft 65 kts 86°
2026-04-16 03:44 18.57986 -72.29650 102 ft 148 kts 86°
2026-04-16 03:44 18.58043 -72.28541 672 ft 156 kts 85°
2026-04-16 03:44 18.58115 -72.27347 1141 ft 177 kts 86°
2026-04-16 03:45 18.58175 -72.25952 1484 ft 204 kts 87°
2026-04-16 03:45 18.58250 -72.24362 1840 ft 232 kts 86°
2026-04-16 03:45 18.58338 -72.22625 2738 ft 236 kts 87°
2026-04-16 03:45 18.58662 -72.20917 3642 ft 243 kts 71°
2026-04-16 03:46 18.59334 -72.19277 4590 ft 242 kts 65°
2026-04-16 03:46 18.59991 -72.17635 5531 ft 245 kts 69°
2026-04-16 03:46 18.60564 -72.15924 6384 ft 249 kts 71°
2026-04-16 03:46 18.61136 -72.14186 7236 ft 253 kts 70°
2026-04-16 03:47 18.61740 -72.12431 8148 ft 256 kts 70°
2026-04-16 03:47 18.62355 -72.10654 9103 ft 259 kts 70°
2026-04-16 03:47 18.62780 -72.08789 9870 ft 267 kts 89°
2026-04-16 03:47 18.62389 -72.06903 10659 ft 267 kts 107°
2026-04-16 03:48 18.61770 -72.05017 11462 ft 271 kts 108°
2026-04-16 03:48 18.61157 -72.03155 12219 ft 274 kts 108°
2026-04-16 03:48 18.60543 -72.01239 12995 ft 278 kts 107°
2026-04-16 03:48 18.59923 -71.99298 13778 ft 281 kts 107°
2026-04-16 03:49 18.59077 -71.97404 14133 ft 300 kts 123°
2026-04-16 03:49 18.57668 -71.95636 14170 ft 329 kts 131°
2026-04-16 03:49 18.56057 -71.93792 14217 ft 354 kts 131°
2026-04-16 03:49 18.54398 -71.91762 14304 ft 375 kts 128°
2026-04-16 03:50 18.52676 -71.89688 14837 ft 379 kts 135°
2026-04-16 03:50 18.50413 -71.88237 15351 ft 385 kts 157°
2026-04-16 03:50 18.47806 -71.87531 15915 ft 389 kts 168°
2026-04-16 03:50 18.45127 -71.87031 16491 ft 394 kts 169°
2026-04-16 03:51 18.42405 -71.86539 17061 ft 399 kts 169°
2026-04-16 03:51 18.39660 -71.85991 17647 ft 404 kts 168°
2026-04-16 03:51 18.36886 -71.85424 18253 ft 408 kts 168°
2026-04-16 03:51 18.34074 -71.84888 18778 ft 413 kts 170°
2026-04-16 03:52 18.31194 -71.84895 19252 ft 418 kts 190°
2026-04-16 03:52 18.28376 -71.85642 19928 ft 418 kts 196°
2026-04-16 03:52 18.25572 -71.86489 20545 ft 421 kts 197°
2026-04-16 03:52 18.22744 -71.87336 21157 ft 424 kts 196°
2026-04-16 03:53 18.19892 -71.88149 21830 ft 425 kts 196°
2026-04-16 03:53 18.17020 -71.88767 22330 ft 432 kts 185°
2026-04-16 03:53 18.14022 -71.88458 22938 ft 437 kts 167°
2026-04-16 03:53 18.11216 -71.87193 23514 ft 443 kts 149°
2026-04-16 03:54 18.08843 -71.85101 24010 ft 447 kts 136°
2026-04-16 03:54 18.06649 -71.82769 24516 ft 450 kts 134°
2026-04-16 03:54 18.04474 -71.80376 24991 ft 454 kts 135°
2026-04-16 03:54 18.02250 -71.77999 25470 ft 458 kts 136°
2026-04-16 03:55 17.99978 -71.75632 25952 ft 462 kts 136°
2026-04-16 03:55 17.97700 -71.73227 26424 ft 465 kts 136°
2026-04-16 03:55 17.95431 -71.70790 26885 ft 469 kts 135°
2026-04-16 03:55 17.93132 -71.68337 27358 ft 472 kts 136°
2026-04-16 03:56 17.90835 -71.65916 27819 ft 476 kts 136°
2026-04-16 03:56 17.88493 -71.63443 28287 ft 480 kts 136°
2026-04-16 03:56 17.86134 -71.60934 28575 ft 487 kts 137°
2026-04-16 03:56 17.83705 -71.58354 29007 ft 492 kts 137°
2026-04-16 03:57 17.81323 -71.55833 29455 ft 495 kts 137°
2026-04-16 03:57 17.78883 -71.53256 29856 ft 499 kts 138°
2026-04-16 03:57 17.76427 -71.50656 30237 ft 503 kts 138°
2026-04-16 03:57 17.73957 -71.48039 30601 ft 506 kts 138°
2026-04-16 03:58 17.71471 -71.45411 30966 ft 509 kts 139°
2026-04-16 03:58 17.68980 -71.42778 31515 ft 507 kts 139°
2026-04-16 03:58 17.66501 -71.40158 32043 ft 505 kts 139°
2026-04-16 03:58 17.64024 -71.37543 32545 ft 505 kts 139°
2026-04-16 03:59 17.61550 -71.34932 33052 ft 504 kts 139°
2026-04-16 03:59 17.59078 -71.32324 33564 ft 504 kts 140°
2026-04-16 03:59 17.56609 -71.29719 34070 ft 503 kts 140°
2026-04-16 03:59 17.54140 -71.27116 34525 ft 502 kts 140°
2026-04-16 04:00 17.51708 -71.24553 34987 ft 501 kts 140°
2026-04-16 04:00 17.49256 -71.21970 35454 ft 499 kts 140°
2026-04-16 04:00 17.46809 -71.19392 35968 ft 498 kts 140°
2026-04-16 04:00 17.44364 -71.16820 36440 ft 497 kts 140°
2026-04-16 04:01 17.41927 -71.14257 36924 ft 496 kts 140°
2026-04-16 04:01 17.39497 -71.11700 37419 ft 495 kts 140°
2026-04-16 04:01 17.37070 -71.09149 37928 ft 494 kts 140°
2026-04-16 04:01 17.34648 -71.06604 38442 ft 493 kts 140°
2026-04-16 04:02 17.33017 -71.04889 38769 ft 492 kts 140°
2026-04-16 04:02 17.30632 -71.02385 39189 ft 491 kts 140°
2026-04-16 04:02 17.28218 -70.99850 39616 ft 491 kts 140°
2026-04-16 04:02 17.25808 -70.97322 40046 ft 490 kts 140°
2026-04-16 04:03 17.23474 -70.94714 40442 ft 493 kts 135°
2026-04-16 04:03 17.21289 -70.91945 40880 ft 493 kts 133°
2026-04-16 04:03 17.19142 -70.89159 41319 ft 492 kts 133°
2026-04-16 04:03 17.16967 -70.86398 41741 ft 491 kts 134°
2026-04-16 04:04 17.14774 -70.83665 42141 ft 490 kts 134°
2026-04-16 04:04 17.12597 -70.80926 42540 ft 490 kts 134°
2026-04-16 04:04 17.10435 -70.78169 42930 ft 489 kts 134°
2026-04-16 04:04 17.08274 -70.75426 43309 ft 489 kts 134°
2026-04-16 04:05 17.06096 -70.72689 43679 ft 488 kts 134°
2026-04-16 04:05 17.03926 -70.69960 44037 ft 488 kts 134°
2026-04-16 04:05 17.01769 -70.67230 44382 ft 487 kts 134°
2026-04-16 04:05 16.99609 -70.64500 44706 ft 487 kts 134°
2026-04-16 04:06 16.97449 -70.61779 44962 ft 486 kts 134°
2026-04-16 04:06 16.93109 -70.56317 44998 ft 498 kts 134°
2026-04-16 04:07 16.88640 -70.50686 45013 ft 509 kts 134°
2026-04-16 04:07 16.84061 -70.44928 45011 ft 521 kts 134°
2026-04-16 04:07 16.81735 -70.42001 45010 ft 526 kts 134°
2026-04-16 04:08 16.77009 -70.36064 44989 ft 537 kts 134°
2026-04-16 04:08 16.72198 -70.30023 45005 ft 544 kts 134°
2026-04-16 04:09 16.67361 -70.23954 45007 ft 543 kts 134°
2026-04-16 04:09 16.62520 -70.17888 45000 ft 544 kts 134°
2026-04-16 04:10 16.57704 -70.11857 44995 ft 544 kts 134°
2026-04-16 04:10 16.52859 -70.05796 44995 ft 544 kts 134°
2026-04-16 04:11 16.48011 -69.99735 44995 ft 544 kts 134°
2026-04-16 04:11 16.43159 -69.93676 44995 ft 544 kts 134°
2026-04-16 04:12 16.38309 -69.87624 44985 ft 544 kts 134°
2026-04-16 04:12 16.33442 -69.81557 44998 ft 546 kts 135°
2026-04-16 04:13 16.28576 -69.75495 44992 ft 545 kts 135°
2026-04-16 04:13 16.23709 -69.69437 44992 ft 545 kts 135°
2026-04-16 04:14 16.18840 -69.63383 44994 ft 545 kts 135°
2026-04-16 04:14 16.13969 -69.57330 44992 ft 545 kts 135°
2026-04-16 04:15 16.09092 -69.51276 44989 ft 545 kts 135°
2026-04-16 04:15 16.04216 -69.45228 44990 ft 546 kts 135°
2026-04-16 04:16 15.99333 -69.39175 44979 ft 548 kts 135°
2026-04-16 04:16 15.94547 -69.33046 44982 ft 549 kts 133°
2026-04-16 04:17 15.89724 -69.26908 44979 ft 548 kts 135°
2026-04-16 04:17 15.84895 -69.20774 44976 ft 549 kts 134°
2026-04-16 04:18 15.80071 -69.14628 44982 ft 549 kts 134°
2026-04-16 04:18 15.75234 -69.08499 44982 ft 549 kts 134°
2026-04-16 04:19 15.70405 -69.02358 44980 ft 549 kts 134°
2026-04-16 04:19 15.65569 -68.96235 44980 ft 549 kts 134°
2026-04-16 04:20 15.60730 -68.90099 44977 ft 550 kts 134°
2026-04-16 04:20 15.55913 -68.84004 44972 ft 549 kts 134°
2026-04-16 04:21 15.51067 -68.77872 44972 ft 549 kts 134°
2026-04-16 04:21 15.46221 -68.71749 44963 ft 549 kts 134°
2026-04-16 04:22 15.41374 -68.65628 44972 ft 549 kts 134°
2026-04-16 04:22 15.36521 -68.59504 44964 ft 549 kts 134°
2026-04-16 04:23 15.31667 -68.53384 44972 ft 549 kts 134°
2026-04-16 04:23 15.26812 -68.47269 44964 ft 549 kts 134°
2026-04-16 04:24 15.21959 -68.41157 44969 ft 550 kts 134°
2026-04-16 04:24 15.17727 -68.34487 44972 ft 557 kts 124°
2026-04-16 04:25 15.13789 -68.27653 44982 ft 556 kts 126°
2026-04-16 04:25 15.09709 -68.20861 44979 ft 556 kts 125°
2026-04-16 04:26 15.05716 -68.14001 44976 ft 556 kts 126°
2026-04-16 04:26 15.01657 -68.07199 44976 ft 556 kts 126°
2026-04-16 04:27 14.97640 -68.00360 44971 ft 556 kts 126°
2026-04-16 04:27 14.93592 -67.93549 44971 ft 556 kts 126°
2026-04-16 04:28 14.89556 -67.86718 44974 ft 556 kts 126°
2026-04-16 04:28 14.85511 -67.79906 44967 ft 555 kts 126°
2026-04-16 04:29 14.81500 -67.73141 44966 ft 555 kts 125°
2026-04-16 04:29 14.77456 -67.66335 44963 ft 555 kts 126°
2026-04-16 04:30 14.73415 -67.59536 44963 ft 555 kts 125°
2026-04-16 04:30 14.69375 -67.52746 44967 ft 555 kts 126°
2026-04-16 04:31 14.65337 -67.45964 44966 ft 554 kts 126°
2026-04-16 04:31 14.61291 -67.39176 44961 ft 554 kts 126°
2026-04-16 04:32 14.57247 -67.32396 44958 ft 554 kts 126°
2026-04-16 04:32 14.52780 -67.25970 44964 ft 550 kts 133°
2026-04-16 04:33 14.48052 -67.19770 44968 ft 549 kts 132°
2026-04-16 04:33 14.43434 -67.13523 44957 ft 546 kts 132°
2026-04-16 04:34 14.38752 -67.07346 44955 ft 547 kts 132°
2026-04-16 04:34 14.34111 -67.01119 44955 ft 547 kts 132°
2026-04-16 04:35 14.29429 -66.94917 44951 ft 547 kts 132°
2026-04-16 04:35 14.24776 -66.88711 44948 ft 547 kts 132°
2026-04-16 04:36 14.20122 -66.82536 44961 ft 546 kts 133°
2026-04-16 04:36 14.15468 -66.76351 44958 ft 546 kts 132°
2026-04-16 04:37 14.10842 -66.70216 44956 ft 546 kts 133°
2026-04-16 04:37 14.06195 -66.64051 44957 ft 542 kts 132°
2026-04-16 04:38 14.01567 -66.57923 44956 ft 543 kts 133°
2026-04-16 04:38 13.96940 -66.51793 44954 ft 542 kts 133°
2026-04-16 04:39 13.92308 -66.45668 44951 ft 542 kts 133°
2026-04-16 04:39 13.87676 -66.39542 44958 ft 542 kts 133°
2026-04-16 04:40 13.83037 -66.33415 44952 ft 542 kts 133°
2026-04-16 04:40 13.78405 -66.27299 44952 ft 542 kts 133°
2026-04-16 04:41 13.73803 -66.21228 44947 ft 539 kts 133°
2026-04-16 04:41 13.69193 -66.15153 44934 ft 538 kts 133°
2026-04-16 04:42 13.64618 -66.09122 44949 ft 534 kts 133°
2026-04-16 04:42 13.60035 -66.03094 44945 ft 535 kts 133°
2026-04-16 04:43 13.55458 -65.97070 44945 ft 535 kts 133°
2026-04-16 04:43 13.50873 -65.91044 44949 ft 535 kts 133°
2026-04-16 04:44 13.46288 -65.85021 44947 ft 535 kts 133°
2026-04-16 04:44 13.41708 -65.79009 44949 ft 535 kts 133°
2026-04-16 04:45 13.37123 -65.72995 44942 ft 535 kts 133°
2026-04-16 04:45 13.32532 -65.66976 44942 ft 535 kts 133°
2026-04-16 04:46 13.27975 -65.61006 44945 ft 535 kts 133°
2026-04-16 04:46 13.23379 -65.54991 44943 ft 536 kts 134°
2026-04-16 04:47 13.18783 -65.48978 44945 ft 536 kts 134°
2026-04-16 04:47 13.14179 -65.42958 44950 ft 535 kts 134°
2026-04-16 04:48 13.09579 -65.36950 44940 ft 535 kts 134°
2026-04-16 04:48 13.05751 -65.31952 44941 ft 535 kts 134°
2026-04-16 04:49 13.01136 -65.25932 44942 ft 540 kts 134°
2026-04-16 04:49 12.96493 -65.19874 44944 ft 539 kts 134°
2026-04-16 04:50 12.91838 -65.13815 44937 ft 545 kts 133°
2026-04-16 04:50 12.87140 -65.07692 44940 ft 546 kts 133°
2026-04-16 04:51 12.82443 -65.01581 44949 ft 546 kts 133°
2026-04-16 04:51 12.77743 -64.95468 44929 ft 545 kts 133°
2026-04-16 04:52 12.73043 -64.89362 44930 ft 546 kts 133°
2026-04-16 04:52 12.68347 -64.83262 44930 ft 545 kts 133°
2026-04-16 04:53 12.63649 -64.77166 44931 ft 545 kts 133°
2026-04-16 04:53 12.58949 -64.71069 44931 ft 545 kts 133°
2026-04-16 04:54 12.54244 -64.64972 44925 ft 546 kts 133°
2026-04-16 04:54 12.49565 -64.58910 44925 ft 546 kts 133°
2026-04-16 04:55 12.44855 -64.52815 44919 ft 546 kts 133°
2026-04-16 04:55 12.40144 -64.46720 44922 ft 546 kts 133°
2026-04-16 04:56 12.35466 -64.40588 44908 ft 549 kts 129°
2026-04-16 04:56 12.31319 -64.34020 44928 ft 550 kts 126°
2026-04-16 04:57 12.27171 -64.27475 44932 ft 548 kts 127°
2026-04-16 04:57 12.23013 -64.20934 44928 ft 549 kts 127°
2026-04-16 04:58 12.18868 -64.14378 44929 ft 549 kts 127°
2026-04-16 04:58 12.14722 -64.07870 44917 ft 545 kts 127°
2026-04-16 04:59 12.10621 -64.01401 44915 ft 545 kts 127°
2026-04-16 04:59 12.06483 -63.94905 44915 ft 545 kts 127°
2026-04-16 05:00 12.02352 -63.88404 44924 ft 545 kts 127°
2026-04-16 05:00 11.98215 -63.81910 44918 ft 545 kts 127°
2026-04-16 05:01 11.94078 -63.75414 44931 ft 545 kts 127°
2026-04-16 05:01 11.89933 -63.68914 44929 ft 545 kts 127°
2026-04-16 05:02 11.85793 -63.62424 44919 ft 545 kts 127°
2026-04-16 05:02 11.81681 -63.55983 44922 ft 545 kts 127°
2026-04-16 05:03 11.77538 -63.49497 44923 ft 544 kts 127°
2026-04-16 05:04 11.71329 -63.39785 44924 ft 544 kts 127°
2026-04-16 05:04 11.67187 -63.33312 44923 ft 545 kts 127°
2026-04-16 05:05 11.63045 -63.26842 44923 ft 545 kts 127°
2026-04-16 05:05 11.58897 -63.20368 44921 ft 545 kts 127°
2026-04-16 05:06 11.54750 -63.13900 44921 ft 545 kts 127°
2026-04-16 05:06 11.50625 -63.07470 44928 ft 545 kts 127°
2026-04-16 05:07 11.46473 -63.01001 44922 ft 545 kts 127°
2026-04-16 05:07 11.42321 -62.94536 44934 ft 545 kts 127°
2026-04-16 05:08 11.38161 -62.88065 44919 ft 548 kts 127°
2026-04-16 05:08 11.33993 -62.81581 44917 ft 547 kts 127°
2026-04-16 05:09 11.29820 -62.75100 44927 ft 547 kts 127°
2026-04-16 05:09 11.25648 -62.68618 44923 ft 547 kts 127°
2026-04-16 05:10 11.21469 -62.62141 44930 ft 547 kts 128°
2026-04-16 05:10 11.17169 -62.55765 44923 ft 546 kts 129°
2026-04-16 05:11 11.12913 -62.49351 44920 ft 546 kts 128°
2026-04-16 05:11 11.08665 -62.43000 44927 ft 546 kts 128°
2026-04-16 05:12 11.04391 -62.36603 44930 ft 546 kts 128°
2026-04-16 05:12 11.00125 -62.30213 44928 ft 546 kts 128°
2026-04-16 05:13 10.95848 -62.23826 44931 ft 546 kts 128°
2026-04-16 05:13 10.91576 -62.17435 44935 ft 545 kts 128°
2026-04-16 05:14 10.87328 -62.11095 44935 ft 545 kts 128°
2026-04-16 05:14 10.83056 -62.04717 44929 ft 546 kts 128°
2026-04-16 05:15 10.78776 -61.98333 44925 ft 546 kts 128°
2026-04-16 05:15 10.74495 -61.91951 44931 ft 545 kts 128°
2026-04-16 05:16 10.70213 -61.85570 44929 ft 546 kts 128°
2026-04-16 05:16 10.65929 -61.79191 44928 ft 546 kts 128°
2026-04-16 05:17 10.61666 -61.72848 44921 ft 547 kts 128°
2026-04-16 05:17 10.57352 -61.66430 44925 ft 546 kts 128°
2026-04-16 05:18 10.53063 -61.60055 44924 ft 546 kts 128°
2026-04-16 05:18 10.48794 -61.53714 44924 ft 547 kts 128°
2026-04-16 05:19 10.44504 -61.47342 44925 ft 546 kts 128°
2026-04-16 05:19 10.40209 -61.40969 44931 ft 546 kts 128°
2026-04-16 05:20 10.35913 -61.34598 44931 ft 547 kts 128°
2026-04-16 05:20 10.31603 -61.28211 44935 ft 548 kts 128°
2026-04-16 05:21 10.27298 -61.21832 44935 ft 548 kts 128°
2026-04-16 05:21 10.22985 -61.15446 44923 ft 547 kts 128°
2026-04-16 05:22 10.18710 -61.09119 44921 ft 547 kts 128°
2026-04-16 05:22 10.14399 -61.02743 44924 ft 547 kts 128°
2026-04-16 05:23 10.10099 -60.96388 44922 ft 546 kts 128°
2026-04-16 05:23 10.05796 -60.90030 44920 ft 546 kts 128°
2026-04-16 05:24 10.01492 -60.83677 44920 ft 546 kts 128°
2026-04-16 05:24 9.97188 -60.77325 44926 ft 546 kts 128°
2026-04-16 05:25 9.92756 -60.71082 44926 ft 543 kts 133°
2026-04-16 05:25 9.88006 -60.65189 44922 ft 543 kts 134°
2026-04-16 05:26 9.83282 -60.59189 44919 ft 544 kts 133°
2026-04-16 05:26 9.78525 -60.53229 44917 ft 543 kts 134°
2026-04-16 05:27 9.73783 -60.47254 44916 ft 544 kts 133°
2026-04-16 05:27 9.69036 -60.41290 44916 ft 544 kts 133°
2026-04-16 05:28 9.64307 -60.35347 44917 ft 544 kts 133°
2026-04-16 05:28 9.59558 -60.29381 44916 ft 544 kts 133°
2026-04-16 05:29 9.54800 -60.23411 44917 ft 544 kts 133°
2026-04-16 05:29 9.50045 -60.17443 44913 ft 544 kts 133°
2026-04-16 05:30 9.45290 -60.11481 44910 ft 544 kts 133°
2026-04-16 05:30 9.40534 -60.05520 44911 ft 544 kts 133°
2026-04-16 05:31 9.35777 -59.99559 44912 ft 544 kts 133°
2026-04-16 05:31 9.31020 -59.93603 44915 ft 544 kts 133°
2026-04-16 05:32 9.26262 -59.87648 44909 ft 544 kts 133°
2026-04-16 05:32 9.21500 -59.81691 44913 ft 544 kts 133°
2026-04-16 05:33 9.16743 -59.75742 44913 ft 544 kts 133°
2026-04-16 05:33 9.11984 -59.69795 44915 ft 543 kts 133°
2026-04-16 05:34 9.07230 -59.63855 44915 ft 543 kts 133°
2026-04-16 05:34 9.02471 -59.57913 44906 ft 542 kts 133°
2026-04-16 05:35 8.97755 -59.52027 44906 ft 542 kts 133°
2026-04-16 05:35 8.92997 -59.46110 44906 ft 541 kts 135°
2026-04-16 05:36 8.87513 -59.41042 44913 ft 532 kts 148°
2026-04-16 05:36 8.81668 -59.36465 44919 ft 533 kts 146°
2026-04-16 05:37 8.75952 -59.31712 44917 ft 530 kts 147°
2026-04-16 05:37 8.70146 -59.27092 44915 ft 531 kts 147°
2026-04-16 05:38 8.64403 -59.22386 44916 ft 531 kts 146°
2026-04-16 05:38 8.59601 -59.18524 44712 ft 524 kts 147°
2026-04-16 05:38 8.56765 -59.16231 43928 ft 516 kts 146°
2026-04-16 05:39 8.53998 -59.13975 43258 ft 506 kts 146°
2026-04-16 05:39 8.51278 -59.11771 42609 ft 499 kts 147°
2026-04-16 05:39 8.48572 -59.09595 41969 ft 496 kts 147°
2026-04-16 05:39 8.45872 -59.07418 41322 ft 498 kts 147°
2026-04-16 05:40 8.43155 -59.05217 40648 ft 503 kts 146°
2026-04-16 05:40 8.40421 -59.03001 39981 ft 504 kts 146°
2026-04-16 05:40 8.37716 -59.00814 39316 ft 505 kts 146°
2026-04-16 05:40 8.34968 -58.98597 38650 ft 505 kts 146°
2026-04-16 05:41 8.32228 -58.96382 37937 ft 504 kts 146°
2026-04-16 05:41 8.29493 -58.94172 37269 ft 503 kts 146°
2026-04-16 05:41 8.26756 -58.91961 36604 ft 504 kts 146°
2026-04-16 05:41 8.24019 -58.89752 35940 ft 504 kts 145°
2026-04-16 05:42 8.21280 -58.87539 35274 ft 504 kts 145°
2026-04-16 05:42 8.18546 -58.85331 34615 ft 503 kts 145°
2026-04-16 05:42 8.15816 -58.83129 33949 ft 502 kts 144°
2026-04-16 05:42 8.13107 -58.80941 33761 ft 497 kts 144°
2026-04-16 05:43 8.10373 -58.78737 32866 ft 507 kts 144°
2026-04-16 05:43 8.07644 -58.76535 32278 ft 499 kts 144°
2026-04-16 05:43 8.04921 -58.74337 31563 ft 503 kts 144°
2026-04-16 05:43 8.02188 -58.72134 30886 ft 504 kts 144°
2026-04-16 05:44 7.99446 -58.69925 30251 ft 503 kts 144°
2026-04-16 05:44 7.96728 -58.67731 29515 ft 496 kts 144°
2026-04-16 05:44 7.94038 -58.65560 28881 ft 493 kts 144°
2026-04-16 05:44 7.91363 -58.63408 28243 ft 490 kts 144°
2026-04-16 05:45 7.88711 -58.61273 27613 ft 487 kts 144°
2026-04-16 05:45 7.86075 -58.59147 27124 ft 483 kts 144°
2026-04-16 05:45 7.83446 -58.57029 26355 ft 481 kts 144°
2026-04-16 05:45 7.80844 -58.54934 25840 ft 477 kts 144°
2026-04-16 05:46 7.78241 -58.52840 25122 ft 477 kts 144°
2026-04-16 05:46 7.75666 -58.50766 24508 ft 472 kts 144°
2026-04-16 05:46 7.72993 -58.48967 23871 ft 465 kts 156°
2026-04-16 05:46 7.69973 -58.47916 23251 ft 456 kts 170°
2026-04-16 05:47 7.66872 -58.47332 22702 ft 453 kts 172°
2026-04-16 05:47 7.63782 -58.46784 22090 ft 448 kts 172°
2026-04-16 05:47 7.60721 -58.46225 21500 ft 445 kts 172°
2026-04-16 05:47 7.57683 -58.45655 20988 ft 441 kts 172°
2026-04-16 05:48 7.54662 -58.45097 20350 ft 440 kts 172°
2026-04-16 05:48 7.51657 -58.44552 19778 ft 437 kts 172°
2026-04-16 05:48 7.48675 -58.44006 19208 ft 434 kts 172°
2026-04-16 05:48 7.45706 -58.43457 18641 ft 433 kts 172°
2026-04-16 05:49 7.42760 -58.42914 18104 ft 430 kts 172°
2026-04-16 05:49 7.39837 -58.42379 17508 ft 423 kts 171°
2026-04-16 05:49 7.36946 -58.41849 16955 ft 421 kts 171°
2026-04-16 05:49 7.34086 -58.41323 16412 ft 415 kts 170°
2026-04-16 05:50 7.31296 -58.40811 15882 ft 411 kts 170°
2026-04-16 05:50 7.28498 -58.40298 15403 ft 406 kts 169°
2026-04-16 05:50 7.25722 -58.39789 14818 ft 403 kts 169°
2026-04-16 05:50 7.22975 -58.39284 14381 ft 400 kts 168°
2026-04-16 05:51 7.20258 -58.38785 13859 ft 395 kts 168°
2026-04-16 05:51 7.17563 -58.38291 13303 ft 390 kts 168°
2026-04-16 05:51 7.14888 -58.37801 12789 ft 388 kts 167°
2026-04-16 05:51 7.12232 -58.37313 12285 ft 385 kts 167°
2026-04-16 05:52 7.09604 -58.36830 11779 ft 378 kts 168°
2026-04-16 05:52 7.07114 -58.36373 11339 ft 349 kts 168°
2026-04-16 05:52 7.04803 -58.35952 10932 ft 327 kts 168°
2026-04-16 05:52 7.02631 -58.35554 10541 ft 308 kts 167°
2026-04-16 05:53 7.00568 -58.35175 10167 ft 297 kts 167°
2026-04-16 05:53 6.98555 -58.34805 9793 ft 292 kts 167°
2026-04-16 05:53 6.96558 -58.34443 9395 ft 290 kts 167°
2026-04-16 05:53 6.94602 -58.34092 9022 ft 289 kts 167°
2026-04-16 05:54 6.92628 -58.33737 8645 ft 288 kts 167°
2026-04-16 05:54 6.90658 -58.33381 8268 ft 287 kts 167°
2026-04-16 05:54 6.88698 -58.33027 7890 ft 285 kts 167°
2026-04-16 05:54 6.86749 -58.32676 7530 ft 284 kts 167°
2026-04-16 05:55 6.84812 -58.32327 7179 ft 284 kts 167°
2026-04-16 05:55 6.82876 -58.31977 6798 ft 283 kts 167°
2026-04-16 05:55 6.80949 -58.31630 6479 ft 278 kts 167°
2026-04-16 05:55 6.79040 -58.31287 6120 ft 281 kts 167°
2026-04-16 05:56 6.77117 -58.30940 5668 ft 278 kts 167°
2026-04-16 05:56 6.75227 -58.30600 5295 ft 275 kts 167°
2026-04-16 05:56 6.73374 -58.30267 4971 ft 265 kts 166°
2026-04-16 05:56 6.71587 -58.29946 4611 ft 255 kts 166°
2026-04-16 05:57 6.69850 -58.29775 4228 ft 252 kts 182°
2026-04-16 05:57 6.68251 -58.30428 3967 ft 251 kts 212°
2026-04-16 05:57 6.67087 -58.31710 4003 ft 255 kts 239°
2026-04-16 05:57 6.66409 -58.33363 4047 ft 259 kts 247°
2026-04-16 05:58 6.65605 -58.34991 4044 ft 259 kts 240°
2026-04-16 05:58 6.64651 -58.36525 4038 ft 259 kts 234°
2026-04-16 05:58 6.63550 -58.37959 4042 ft 258 kts 227°
2026-04-16 05:58 6.62319 -58.39272 4038 ft 258 kts 221°
2026-04-16 05:59 6.60970 -58.40455 4032 ft 257 kts 216°
2026-04-16 05:59 6.59519 -58.41496 4031 ft 255 kts 210°
2026-04-16 05:59 6.57981 -58.42386 4027 ft 255 kts 204°
2026-04-16 05:59 6.56370 -58.43120 4025 ft 253 kts 198°
2026-04-16 06:00 6.54706 -58.43690 4022 ft 252 kts 193°
2026-04-16 06:00 6.53007 -58.44096 4020 ft 250 kts 187°
2026-04-16 06:00 6.51288 -58.44335 4021 ft 248 kts 181°
2026-04-16 06:00 6.49633 -58.44411 4016 ft 228 kts 176°
2026-04-16 06:01 6.48090 -58.44344 4022 ft 218 kts 171°
2026-04-16 06:01 6.46589 -58.44152 4020 ft 216 kts 166°
2026-04-16 06:01 6.45121 -58.43839 4025 ft 215 kts 161°
2026-04-16 06:01 6.43694 -58.43409 4021 ft 214 kts 156°
2026-04-16 06:02 6.40983 -58.42217 3736 ft 206 kts 147°
2026-04-16 06:02 6.39768 -58.41498 3533 ft 199 kts 142°
2026-04-16 06:02 6.38656 -58.40710 3341 ft 190 kts 137°
2026-04-16 06:03 6.37872 -58.39730 3115 ft 173 kts 110°
2026-04-16 06:03 6.37648 -58.38615 2957 ft 160 kts 87°
2026-04-16 06:03 6.37908 -58.37563 2789 ft 150 kts 63°
2026-04-16 06:03 6.38570 -58.36802 2664 ft 143 kts 50°
2026-04-16 06:04 6.39248 -58.36073 2523 ft 142 kts 49°
2026-04-16 06:04 6.39916 -58.35388 2368 ft 135 kts 48°
2026-04-16 06:04 6.40582 -58.34719 2225 ft 138 kts 49°
2026-04-16 06:04 6.41266 -58.34031 2137 ft 141 kts 48°
2026-04-16 06:05 6.41955 -58.33339 1968 ft 139 kts 48°
2026-04-16 06:05 6.42641 -58.32651 1782 ft 139 kts 48°
2026-04-16 06:05 6.43312 -58.31978 1601 ft 130 kts 47°
2026-04-16 06:05 6.43919 -58.31371 1437 ft 118 kts 48°
2026-04-16 06:06 6.44493 -58.30796 1286 ft 116 kts 48°
2026-04-16 06:06 6.45066 -58.30220 1139 ft 117 kts 48°
2026-04-16 06:06 6.45649 -58.29634 987 ft 120 kts 47°
2026-04-16 06:06 6.46246 -58.29032 830 ft 123 kts 47°
2026-04-16 06:07 6.46851 -58.28422 663 ft 126 kts 46°
2026-04-16 06:07 6.47474 -58.27798 489 ft 127 kts 46°
2026-04-16 06:07 6.48098 -58.27172 319 ft 126 kts 46°
2026-04-16 06:07 6.48719 -58.26546 379 ft 135 kts 47°
2026-04-16 06:08 6.49471 -58.25769 678 ft 175 kts 46°
2026-04-16 06:08 6.50428 -58.24915 1143 ft 182 kts 42°
2026-04-16 06:08 6.51368 -58.24116 1636 ft 171 kts 42°
2026-04-16 06:08 6.52220 -58.23415 2167 ft 153 kts 43°
2026-04-16 06:09 6.53101 -58.22687 2712 ft 176 kts 43°
2026-04-16 06:09 6.54096 -58.21851 3273 ft 193 kts 43°
2026-04-16 06:09 6.55133 -58.20970 3328 ft 202 kts 43°
2026-04-16 06:09 6.56209 -58.20053 3221 ft 202 kts 42°
2026-04-16 06:10 6.57272 -58.19131 3090 ft 202 kts 43°
2026-04-16 06:10 6.58332 -58.18225 3025 ft 198 kts 43°
2026-04-16 06:10 6.59574 -58.17657 2945 ft 206 kts
2026-04-16 06:10 6.60919 -58.18181 2937 ft 218 kts 323°
2026-04-16 06:11 6.61918 -58.19341 3059 ft 223 kts 312°
2026-04-16 06:11 6.62908 -58.20561 3053 ft 226 kts 313°
2026-04-16 06:11 6.63979 -58.21696 2982 ft 221 kts 331°
2026-04-16 06:11 6.65369 -58.22214 3042 ft 211 kts 347°
2026-04-16 06:12 6.66791 -58.22680 3043 ft 216 kts 345°
2026-04-16 06:12 6.68158 -58.23155 3028 ft 200 kts 345°
2026-04-16 06:12 6.69436 -58.23526 2980 ft 182 kts 358°
2026-04-16 06:12 6.70589 -58.23340 2989 ft 158 kts 26°
2026-04-16 06:13 6.71456 -58.22757 3002 ft 146 kts 48°
2026-04-16 06:13 6.72073 -58.21961 3022 ft 144 kts 54°
2026-04-16 06:13 6.72686 -58.21172 3022 ft 143 kts 53°
2026-04-16 06:13 6.73300 -58.20371 2883 ft 149 kts 54°
2026-04-16 06:14 6.73948 -58.19521 2532 ft 156 kts 53°
2026-04-16 06:14 6.74597 -58.18669 2148 ft 147 kts 54°
2026-04-16 06:14 6.75190 -58.17887 1752 ft 138 kts 54°
2026-04-16 06:14 6.75756 -58.17140 1425 ft 128 kts 54°
2026-04-16 06:15 6.76297 -58.16425 1127 ft 135 kts 53°
2026-04-16 06:15 6.76824 -58.15730 1074 ft 120 kts 53°
2026-04-16 06:15 6.77325 -58.15068 945 ft 127 kts 52°
2026-04-16 06:15 6.77857 -58.14367 745 ft 120 kts 54°
2026-04-16 06:16 6.78352 -58.13713 605 ft 118 kts 55°
2026-04-16 06:16 6.78849 -58.13048 525 ft 120 kts 55°
2026-04-16 06:16 6.79350 -58.12401 368 ft 112 kts 52°
2026-04-16 06:16 6.79811 -58.11791 197 ft 109 kts 56°
2026-04-16 06:17 6.80264 -58.11189 37 ft 105 kts 58°
2026-04-16 06:17 6.80650 -58.10681 3 ft 67 kts 52°
2026-04-16 06:17 6.80839 -58.10434 4 ft 29 kts 52°
2026-04-16 06:17 6.80919 -58.10323 7 ft 10 kts 52°
2026-04-16 06:18 6.80932 -58.10329 7 ft 3 kts 255°
2026-04-16 06:18 6.80904 -58.10354 6 ft 8 kts 223°
2026-04-16 06:18 6.80865 -58.10398 4 ft 9 kts 230°
2026-04-16 06:18 6.80827 -58.10450 4 ft 9 kts 235°
2026-04-16 06:19 6.80790 -58.10498 5 ft 8 kts 230°
2026-04-16 06:19 6.80749 -58.10498 5 ft 6 kts 140°
2026-04-16 06:19 6.80717 -58.10472 5 ft 6 kts 141°
2026-04-16 06:19 6.80696 -58.10448 5 ft 4 kts 114°
2026-04-16 06:20 6.80699 -58.10429 6 ft 3 kts 60°
2026-04-16 06:20 6.80693 -58.10414 6 ft 1 kts 145°
2026-04-16 06:20 6.80693 -58.10413 6 ft 0 kts 145°